Карточка аэропорта USNN

Внимание!
Информация на этой странице в стадии наполнения.
Если вы не увидели какой-то информации, или заметили неточность - пожалуйста сообщите нам!
Спасибо!
Команда RU-STAFF
Название аэропортаНижневартовск
Название аэропорта (англ.)Nizhnevartovsk
Превышение177 ft. (53.9 m.)
Координаты60°57', 76°28.998'
Высота перехода800m
Эшелон переходаQFE>=756mm:FL040; QFE<756=>729:FL050; QFE<729:FL060
Коды ответчика5630-5633
Зона ОрВДТюмень РПИ (USTV)
Данные METARUSNN 201630Z 13005MPS CAVOK M00/M10 Q1027 R21/0///65 NOSIG RMK QFE765
Проноз погоды (TAF)USNN 201345Z 2015/2115 12005G11MPS 9999 SCT016 BKN040 TEMPO 2015/2024 -SN -FZDZ FEW004 BKN016 BECMG 2100/2102 16003G08MPS BECMG 2108/2109 30003G08MPS
NOTAMshow/hide NOTAM
AWOS   TABLE

Информация о ВПП

ВПП Длина ВПП (м.) Покрытие Курс ВПП Частота ILS
033200Асфальтобетон26110.5
213200Асфальтобетон206111.9

Диспетчерские позиции

Позывной Наименование органа УВД Частота
USNN_TWRНижневартовск - Вышка118.100
USNN_APPНижневартовск - Круг120.400



Спутниковое изображение